Date String (YYYY-MM-DD hh:mm:ss) UTC,Instrument flags,Ambient pressure (hPa),Sample flow (lpm),Bypass flow (lpm),Sample temperature (°C),Ambient temperature (°C),ASC tube jacket temperature (°C),LED temperature (°C),Box temperature (°C),Sample RH (%),Span deviation,Mass concentration (μg/m³),Mass concentration (μg/m³),Mass concentration (μg/m³)
DateTimeUTC,F1_M11,P_M11,Q1_M11,Q2_M11,T1_M11,T2_M11,T3_M11,T4_M11,T5_M11,U1_M11,ZSPAN_M11,X0_M11,X2_M11,X1_M11
2021-08-20 18:00:00,,0824.8,5.01,0.00,29.4,27.6,00.0,38.6,31.0,15.2,0002.3,0017.09,0012.57,0012.01
2021-08-20 18:01:00,,0824.9,4.99,0.00,29.4,27.8,00.0,38.6,31.0,14.4,0002.2,0017.13,0012.63,0012.07
2021-08-20 18:02:00,,0824.9,5.01,0.00,29.4,28.0,00.0,38.6,31.1,14.8,0002.3,0017.02,0012.65,0012.14
2021-08-20 18:03:00,,0824.9,4.98,0.00,29.4,28.1,00.0,38.6,31.1,15.3,0002.4,0017.05,0012.70,0012.20
2021-08-20 18:04:00,,0824.9,5.01,0.00,29.4,28.2,00.0,38.6,31.2,15.8,0002.4,0016.87,0012.73,0012.25
2021-08-20 18:05:00,,0824.8,4.99,0.00,29.5,28.3,00.0,38.6,31.2,15.9,0002.3,0016.77,0012.70,0012.26
2021-08-20 18:06:00,,0824.9,5.02,0.00,29.5,28.4,00.0,38.6,31.2,15.5,0002.4,0016.72,0012.71,0012.29
2021-08-20 18:07:00,,0824.9,4.98,0.00,29.5,28.4,00.0,38.6,31.2,16.0,0002.4,0016.67,0012.70,0012.30
2021-08-20 18:08:00,,0825.0,5.00,0.00,29.5,28.5,00.0,38.6,31.2,15.8,0002.5,0016.58,0012.72,0012.34
2021-08-20 18:09:00,,0825.1,5.01,0.00,29.5,28.5,00.0,38.6,31.3,16.0,0002.5,0016.72,0012.79,0012.36
2021-08-20 18:10:00,,0825.0,5.02,0.00,29.6,28.6,00.0,38.6,31.3,16.4,0002.5,0016.72,0012.79,0012.35
2021-08-20 18:11:00,,0825.0,5.00,0.00,29.6,28.7,00.0,38.6,31.4,16.1,0002.3,0016.71,0012.79,0012.34
2021-08-20 18:12:00,,0825.1,5.01,0.00,29.6,28.7,00.0,38.7,31.4,15.5,0002.5,0016.74,0012.80,0012.33
2021-08-20 18:13:00,,0825.1,4.99,0.00,29.7,28.8,00.0,38.7,31.4,15.4,0002.6,0016.71,0012.78,0012.29
2021-08-20 18:14:00,,0825.2,5.00,0.00,29.7,28.4,00.0,38.7,31.4,15.8,0002.7,0016.65,0012.76,0012.29
2021-08-20 18:15:00,,0825.0,5.00,0.00,29.6,26.6,00.0,38.7,30.9,16.6,0002.7,0016.57,0012.73,0012.27
2021-08-20 18:16:00,,0824.9,5.00,0.00,29.4,25.8,00.0,38.6,30.7,16.2,0002.8,0017.06,0012.69,0012.21
2021-08-20 18:17:00,,0825.0,5.01,0.00,29.3,26.2,00.0,38.6,30.7,17.0,0002.7,0017.02,0012.65,0012.15
2021-08-20 18:18:00,,0825.1,5.00,0.00,29.3,26.6,00.0,38.5,30.8,17.0,0002.7,0017.02,0012.62,0012.12
2021-08-20 18:19:00,,0824.9,5.01,0.00,29.3,27.0,00.0,38.5,30.8,16.4,0002.7,0017.06,0012.57,0012.06
2021-08-20 18:20:00,,0824.9,5.01,0.00,29.3,27.3,00.0,38.5,30.9,16.2,0002.8,0016.95,0012.49,0011.98
2021-08-20 18:21:00,,0824.8,5.00,0.00,29.3,27.5,00.0,38.5,30.9,16.4,0002.8,0016.95,0012.43,0011.93
2021-08-20 18:22:00,,0824.9,5.00,0.00,29.3,27.7,00.0,38.5,31.0,15.9,0003.0,0017.10,0012.44,0011.90
2021-08-20 18:23:00,,0824.9,5.01,0.00,29.3,27.9,00.0,38.5,31.0,16.3,0002.8,0017.07,0012.36,0011.83
2021-08-20 18:24:00,,0824.9,5.00,0.00,29.3,28.0,00.0,38.5,31.0,15.9,0002.5,0017.11,0012.31,0011.75
2021-08-20 18:25:00,,0824.9,4.99,0.00,29.3,28.1,00.0,38.5,31.1,15.8,0002.5,0017.23,0012.30,0011.67
2021-08-20 18:26:00,,0824.9,5.00,0.00,29.3,28.2,00.0,38.5,31.1,16.1,0002.5,0017.25,0012.26,0011.59
2021-08-20 18:27:00,,0824.9,5.00,0.00,29.3,28.3,00.0,38.5,31.1,16.1,0002.4,0016.74,0012.22,0011.56
2021-08-20 18:28:00,,0824.8,5.00,0.00,29.4,28.4,00.0,38.5,31.1,16.3,0002.5,0016.67,0012.17,0011.52
2021-08-20 18:29:00,,0824.9,5.01,0.00,29.4,28.4,00.0,38.5,31.2,15.9,0002.5,0016.57,0012.11,0011.47
2021-08-20 18:30:00,,0825.0,4.99,0.00,29.4,28.5,00.0,38.5,31.2,15.7,0002.3,0016.53,0012.06,0011.43
2021-08-20 18:31:00,,0825.0,4.99,0.00,29.4,28.5,00.0,38.5,31.2,16.0,0002.2,0016.53,0012.01,0011.40
2021-08-20 18:32:00,,0824.9,5.00,0.00,29.5,28.6,00.0,38.6,31.2,16.7,0002.3,0016.37,0011.94,0011.34
2021-08-20 18:33:00,,0825.0,5.01,0.00,29.5,28.6,00.0,38.6,31.3,16.4,0002.3,0016.16,0011.89,0011.30
2021-08-20 18:34:00,,0824.8,5.00,0.00,29.5,28.7,00.0,38.6,31.3,16.3,0002.3,0016.04,0011.85,0011.28
2021-08-20 18:35:00,,0824.7,4.99,0.00,29.6,28.7,00.0,38.6,31.4,16.2,0002.5,0016.53,0011.88,0011.27
2021-08-20 18:36:00,,0824.9,5.01,0.00,29.6,28.7,00.0,38.6,31.4,15.6,0002.4,0016.81,0011.88,0011.24
2021-08-20 18:37:00,,0824.9,5.00,0.00,29.5,27.3,00.0,38.6,31.0,16.3,0002.4,0016.82,0011.89,0011.23
2021-08-20 18:38:00,,0824.9,5.00,0.00,29.4,26.6,00.0,38.6,30.8,16.4,0002.6,0016.80,0011.89,0011.23
2021-08-20 18:39:00,,0824.9,4.99,0.00,29.4,26.8,00.0,38.6,30.9,16.3,0002.9,0016.83,0011.91,0011.21
2021-08-20 18:40:00,,0825.0,5.00,0.00,29.3,27.1,00.0,38.5,30.9,16.5,0002.9,0017.03,0011.91,0011.19
2021-08-20 18:41:00,,0825.0,5.01,0.00,29.3,27.4,00.0,38.5,31.0,16.2,0003.0,0017.05,0011.91,0011.18
2021-08-20 18:42:00,,0824.9,5.00,0.00,29.3,27.7,00.0,38.5,31.0,16.7,0003.1,0016.97,0011.90,0011.15
2021-08-20 18:43:00,,0824.9,5.00,0.00,29.3,27.8,00.0,38.5,31.0,16.7,0003.0,0017.05,0011.92,0011.15
2021-08-20 18:44:00,,0824.9,4.99,0.00,29.3,28.0,00.0,38.5,31.1,16.0,0002.8,0017.02,0011.89,0011.12
2021-08-20 18:45:00,,0824.9,5.00,0.00,29.4,28.1,00.0,38.5,31.1,16.6,0002.8,0017.27,0011.95,0011.11
2021-08-20 18:46:00,,0824.7,5.00,0.00,29.4,28.3,00.0,38.5,31.2,16.8,0002.9,0017.29,0011.97,0011.14
2021-08-20 18:47:00,,0824.8,4.99,0.00,29.4,28.4,00.0,38.5,31.2,16.4,0002.9,0018.24,0011.99,0011.17
2021-08-20 18:48:00,,0824.8,5.01,0.00,29.4,28.4,00.0,38.5,31.2,16.5,0002.9,0018.34,0012.02,0011.19
2021-08-20 18:49:00,,0825.0,4.99,0.00,29.4,28.5,00.0,38.5,31.2,16.0,0002.8,0018.58,0012.09,0011.21
2021-08-20 18:50:00,,0825.0,5.01,0.00,29.5,28.6,00.0,38.6,31.2,16.6,0002.7,0018.70,0012.10,0011.25
2021-08-20 18:51:00,,0825.0,5.00,0.00,29.5,28.6,00.0,38.6,31.3,16.5,0002.6,0018.85,0012.16,0011.30
2021-08-20 18:52:00,,0825.0,5.00,0.00,29.5,28.6,00.0,38.6,31.3,16.2,0002.4,0019.26,0012.22,0011.35
2021-08-20 18:53:00,,0825.0,5.01,0.00,29.5,28.7,00.0,38.6,31.3,15.9,0002.6,0019.87,0012.29,0011.40
2021-08-20 18:54:00,,0825.1,4.98,0.00,29.5,28.7,00.0,38.6,31.3,15.7,0002.5,0019.84,0012.31,0011.44
2021-08-20 18:55:00,,0825.1,5.01,0.00,29.6,28.7,00.0,38.6,31.3,15.7,0002.7,0019.84,0012.31,0011.47
2021-08-20 18:56:00,,0825.3,5.00,0.00,29.5,27.5,00.0,38.6,31.1,15.5,0002.7,0019.75,0012.31,0011.53
2021-08-20 18:57:00,,0825.3,5.00,0.00,29.4,25.7,00.0,38.6,30.6,16.7,0002.6,0019.54,0012.26,0011.54
2021-08-20 18:58:00,,0825.3,5.02,0.00,29.3,25.6,00.0,38.5,30.5,16.4,0002.5,0017.88,0012.17,0011.53
2021-08-20 18:59:00,,0825.3,4.98,0.00,29.2,26.1,00.0,38.5,30.6,16.4,0002.4,0017.52,0012.11,0011.52
